Meadow Lake, CO

4:49 PM MDT on March 22, 2017 (GMT -0600)
Meadow Lake

Weather History for KFLY - April, 2013

Change the Weather History Date:

Monday, April 22, 2013

  Actual Average (KCOS) Record (KCOS)
Temperature  
Mean Temperature 38 °F -  
Max Temperature 58 °F 61 °F 83 °F (1989)
Min Temperature 19 °F 35 °F 21 °F (1982)
Degree Days  
Heating Degree Days 27    
Moisture  
Dew Point 24 °F    
Average Humidity 68    
Maximum Humidity 91    
Minimum Humidity 26    
Precipitation  
Precipitation 0.00 in - - ()
Sea Level Pressure  
Sea Level Pressure 30.03 in    
Wind  
Wind Speed 11 mph (NNW)    
Max Wind Speed 30 mph    
Max Gust Speed 43 mph    
Visibility 9 miles    
Events Rain , Snow    
Averages and records for this station are not official NWS values.
T = Trace of Precipitation, MM = Missing Value Source: NWS Daily Summary

Daily Weather History Graph

Daily Weather History Graph

Search for Another Location

Airport or City:

Trip Planner

Search our weather history database for the weather conditions in past years. The results will help you decide how hot, cold, wet, or windy it might be!

Date:

Astronomy

Apr. 22, 2013 Rise Set
Actual Time 6:11 AM MDT 7:42 PM MDT
Civil Twilight 5:43 AM MDT 8:10 PM MDT
Nautical Twilight 5:09 AM MDT 8:44 PM MDT
Astronomical Twilight 4:34 AM MDT 9:20 PM MDT
Moon 4:35 PM MDT 4:05 AM MDT
Length of Visible Light 14h 27m
Length of Day
13h 31m
Waxing Gibbous, 88% of the Moon is Illuminated
Apr 22
Waxing Gibbous
Apr 25
Full
May 2
Last Quarter
May 9
New
May 17
First Quarter

Hourly Weather History & Observations

Time (MDT) Temp. Windchill Dew Point Humidity Pressure Visibility Wind Dir Wind Speed Gust Speed Precip Events Conditions
12:15 AM 38.8 °F 36.5 °F 26.6 °F 61% 30.05 in 10.0 mi SSE 3.5 mph - N/A   Clear
12:35 AM 39.6 °F 34.7 °F 26.2 °F 59% 30.05 in 10.0 mi South 6.9 mph - N/A   Clear
12:55 AM 39.0 °F 34.8 °F 26.2 °F 60% 30.04 in 10.0 mi SE 5.8 mph - N/A   Clear
1:15 AM 38.5 °F 36.1 °F 26.2 °F 61% 30.03 in 10.0 mi SE 3.5 mph - N/A   Clear
1:35 AM 38.5 °F 35.0 °F 26.2 °F 61% 30.02 in 10.0 mi South 4.6 mph - N/A   Clear
1:55 AM 38.7 °F 36.3 °F 26.2 °F 61% 30.02 in 10.0 mi ESE 3.5 mph - N/A   Clear
2:15 AM 37.0 °F 31.6 °F 26.2 °F 65% 30.00 in 10.0 mi SSW 6.9 mph - N/A   Clear
2:35 AM 36.1 °F - 25.5 °F 65% 30.00 in 10.0 mi Calm Calm - N/A   Clear
2:55 AM 37.2 °F - 26.1 °F 64% 30.00 in 10.0 mi Calm Calm - N/A   Clear
3:15 AM 36.3 °F - 25.9 °F 66% 29.99 in 10.0 mi Calm Calm - N/A   Clear
3:35 AM 32.9 °F - 24.8 °F 72% 29.98 in 10.0 mi Calm Calm - N/A   Clear
3:55 AM 34.0 °F 29.8 °F 26.1 °F 73% 29.97 in 10.0 mi WSW 4.6 mph - N/A   Clear
4:15 AM 31.6 °F 26.0 °F 25.2 °F 77% 29.97 in 10.0 mi NW 5.8 mph - N/A   Clear
4:35 AM 31.6 °F 23.7 °F 25.3 °F 78% 29.94 in 10.0 mi WNW 9.2 mph - N/A   Clear
4:55 AM 31.6 °F 23.7 °F 25.7 °F 79% 29.94 in 10.0 mi West 9.2 mph - N/A   Clear
5:15 AM 32.0 °F 23.0 °F 26.2 °F 79% 29.95 in 10.0 mi WNW 11.5 mph - N/A   Clear
5:35 AM 34.7 °F 26.4 °F 27.5 °F 75% 29.94 in 10.0 mi West 11.5 mph - N/A   Clear
5:55 AM 36.3 °F 29.5 °F 27.7 °F 71% 29.95 in 10.0 mi West 9.2 mph - N/A   Clear
6:15 AM 35.6 °F 27.5 °F 27.1 °F 71% 29.96 in 10.0 mi WNW 11.5 mph - N/A   Clear
6:35 AM 38.7 °F 31.8 °F 26.4 °F 61% 29.97 in 10.0 mi NW 10.4 mph - N/A   Clear
6:55 AM 40.5 °F 34.1 °F 25.9 °F 56% 29.98 in 10.0 mi WNW 10.4 mph - N/A   Clear
7:15 AM 42.4 °F 36.1 °F 25.3 °F 51% 29.98 in 10.0 mi NW 11.5 mph 16.1 mph N/A   Clear
7:35 AM 45.0 °F 39.3 °F 24.1 °F 44% 29.98 in 10.0 mi NNW 11.5 mph 18.4 mph N/A   Clear
7:55 AM 45.9 °F 40.0 °F 24.6 °F 43% 29.98 in 10.0 mi NNW 12.7 mph 16.1 mph N/A   Clear
8:15 AM 47.5 °F - 25.2 °F 42% 29.98 in 10.0 mi North 12.7 mph 18.4 mph N/A   Clear
8:35 AM 49.3 °F - 25.0 °F 39% 29.98 in 10.0 mi NNW 10.4 mph 16.1 mph N/A   Clear
8:55 AM 51.3 °F - 24.1 °F 35% 29.98 in 7.0 mi North 11.5 mph 16.1 mph N/A   Clear
9:15 AM 52.2 °F - 24.8 °F 35% 29.98 in 7.0 mi North 11.5 mph - N/A   Scattered Clouds
9:35 AM 52.7 °F - 24.4 °F 33% 29.98 in 10.0 mi North 10.4 mph - N/A   Scattered Clouds
9:55 AM 53.6 °F - 23.9 °F 32% 29.98 in 10.0 mi SW 3.5 mph - N/A   Scattered Clouds
10:15 AM 54.7 °F - 23.2 °F 29% 29.96 in 7.0 mi North 9.2 mph - N/A   Scattered Clouds
10:35 AM 57.6 °F - 22.6 °F 26% 29.96 in 7.0 mi NW 9.2 mph 21.9 mph N/A   Scattered Clouds
10:55 AM 55.4 °F - 22.1 °F 27% 29.97 in 7.0 mi WNW 12.7 mph 26.5 mph N/A   Scattered Clouds
11:15 AM 48.7 °F - 27.3 °F 43% 29.99 in 7.0 mi WNW 16.1 mph 38.0 mph N/A   Overcast
11:35 AM 55.6 °F - 25.2 °F 31% 29.97 in 7.0 mi SW 5.8 mph - N/A   Scattered Clouds
11:55 AM 57.7 °F - 23.7 °F 27% 29.96 in 10.0 mi SSW 9.2 mph - N/A   Clear
12:15 PM 55.6 °F - 23.4 °F 29% 30.00 in 10.0 mi NNW 11.5 mph 21.9 mph N/A   Mostly Cloudy
12:35 PM 39.7 °F 30.3 °F 32.0 °F 74% 30.03 in 3.0 mi North 19.6 mph 35.7 mph N/A   Haze
12:55 PM 35.4 °F 24.3 °F 32.4 °F 89% 30.02 in 3.0 mi North 20.7 mph 29.9 mph N/A Rain Light Rain
1:15 PM 39.2 °F 29.0 °F 33.8 °F 81% 30.01 in 10.0 mi North 21.9 mph 32.2 mph N/A   Unknown
1:35 PM 39.6 °F 28.1 °F 31.3 °F 72% 30.01 in 10.0 mi North 28.8 mph 34.5 mph N/A   Overcast
1:55 PM 34.9 °F 22.5 °F 28.2 °F 77% 30.02 in 7.0 mi North 25.3 mph 31.1 mph N/A   Overcast
2:15 PM 32.0 °F 19.5 °F 28.9 °F 88% 30.03 in 2.0 mi North 21.9 mph 32.2 mph N/A Snow Light Snow
2:35 PM 32.0 °F 18.1 °F 29.7 °F 91% 30.00 in 0.2 mi North 27.6 mph 35.7 mph N/A Snow Heavy Snow
2:55 PM 32.5 °F 18.4 °F 29.5 °F 88% 29.99 in 5.0 mi North 29.9 mph 38.0 mph N/A Snow Light Snow
3:15 PM 31.6 °F 18.4 °F 28.0 °F 87% 29.99 in 7.0 mi North 24.2 mph 42.6 mph N/A   Overcast
3:35 PM 31.8 °F 17.4 °F 26.8 °F 82% 29.98 in 5.0 mi North 29.9 mph 41.4 mph N/A   Overcast
3:55 PM 30.6 °F 15.7 °F 25.3 °F 81% 30.01 in 10.0 mi North 29.9 mph 38.0 mph N/A   Overcast
4:15 PM 30.7 °F 16.4 °F 23.7 °F 75% 30.02 in 10.0 mi North 27.6 mph 40.3 mph N/A   Overcast
4:35 PM 28.2 °F 13.9 °F 22.3 °F 78% 30.04 in 10.0 mi North 24.2 mph 35.7 mph N/A   Overcast
4:55 PM 27.0 °F 11.6 °F 22.1 °F 82% 30.05 in 10.0 mi North 26.5 mph 33.4 mph N/A   Overcast
5:15 PM 26.6 °F 12.0 °F 21.7 °F 82% 30.06 in 5.0 mi North 23.0 mph 33.4 mph N/A Snow Light Snow
5:35 PM 26.1 °F 11.6 °F 21.7 °F 84% 30.06 in 10.0 mi North 21.9 mph 32.2 mph N/A Snow Light Snow
5:55 PM 25.2 °F 8.9 °F 21.6 °F 86% 30.04 in 10.0 mi North 27.6 mph 36.8 mph N/A   Overcast
6:15 PM 25.2 °F 8.9 °F 21.0 °F 84% 30.04 in 10.0 mi North 27.6 mph 39.1 mph N/A   Overcast
6:35 PM 24.6 °F 8.5 °F 19.9 °F 82% 30.07 in 10.0 mi North 26.5 mph 36.8 mph N/A   Overcast
6:55 PM 23.9 °F 7.8 °F 20.1 °F 85% 30.09 in 10.0 mi North 25.3 mph 32.2 mph N/A   Overcast
7:15 PM 23.5 °F 8.3 °F 19.2 °F 84% 30.10 in 10.0 mi North 21.9 mph 34.5 mph N/A   Overcast
7:35 PM 23.4 °F 8.1 °F 18.9 °F 83% 30.09 in 10.0 mi North 21.9 mph 32.2 mph N/A   Overcast
7:55 PM 22.1 °F 4.8 °F 19.0 °F 88% 30.12 in 7.0 mi North 27.6 mph 32.2 mph N/A Snow Light Snow
8:15 PM 21.9 °F 5.8 °F 19.0 °F 89% 30.13 in 7.0 mi North 23.0 mph 32.2 mph N/A   Overcast
8:35 PM 21.4 °F 5.5 °F 19.0 °F 91% 30.14 in 7.0 mi North 21.9 mph 28.8 mph N/A   Overcast
8:55 PM 21.6 °F 5.7 °F 17.6 °F 85% 30.14 in 10.0 mi North 21.9 mph 31.1 mph N/A   Overcast
9:15 PM 21.2 °F 4.9 °F 17.2 °F 85% 30.15 in 10.0 mi North 23.0 mph 31.1 mph N/A   Overcast
9:35 PM 21.6 °F 6.5 °F 18.1 °F 87% 30.16 in 10.0 mi North 19.6 mph 28.8 mph N/A   Overcast
9:55 PM 21.2 °F 4.9 °F 16.5 °F 82% 30.17 in 10.0 mi North 23.0 mph 28.8 mph N/A   Overcast
10:15 PM 20.7 °F 5.7 °F 16.3 °F 83% 30.18 in 5.0 mi North 18.4 mph 28.8 mph N/A Snow Light Snow
10:35 PM 20.7 °F 4.9 °F 16.5 °F 84% 30.17 in 10.0 mi NNE 20.7 mph 26.5 mph N/A Snow Light Snow
10:55 PM 20.3 °F 5.7 °F 16.5 °F 85% 30.17 in 7.0 mi North 17.3 mph 24.2 mph N/A Snow Light Snow
11:15 PM 19.9 °F 6.7 °F 16.2 °F 85% 30.18 in 4.0 mi North 13.8 mph 21.9 mph N/A Snow Light Snow
11:35 PM 19.6 °F 6.2 °F 15.3 °F 83% 30.16 in 10.0 mi North 13.8 mph 23.0 mph N/A   Overcast
11:55 PM 19.8 °F 5.9 °F 15.3 °F 83% 30.16 in 10.0 mi NNE 15.0 mph 20.7 mph N/A   Overcast